Grass Valley, CA

4:02 AM PST on January 18, 2018 (GMT -0800)
Grass Valley

Weather History for KGOO - April, 2013

Change the Weather History Date:

Friday, April 19, 2013

  Actual Average (KAUN) Record (KAUN)
Temperature  
Mean Temperature 59 °F -  
Max Temperature 68 °F 65 °F 87 °F (1954)
Min Temperature 50 °F 43 °F 33 °F (1955)
Degree Days  
Heating Degree Days 6    
Growing Degree Days 9 (Base 50)    
Moisture  
Dew Point 33 °F    
Average Humidity 38    
Maximum Humidity 54    
Minimum Humidity 30    
Precipitation  
Precipitation 0.00 in - - ()
Sea Level Pressure  
Sea Level Pressure 30.22 in    
Wind  
Wind Speed 2 mph (West)    
Max Wind Speed 13 mph    
Max Gust Speed 16 mph    
Visibility 10 miles    
Events      
Averages and records for this station are not official NWS values.
T = Trace of Precipitation, MM = Missing Value Source: NWS Daily Summary

Daily Weather History Graph

Daily Weather History Graph

Search for Another Location

Airport or City:

Trip Planner

Search our weather history database for the weather conditions in past years. The results will help you decide how hot, cold, wet, or windy it might be!

Date:

Astronomy

Apr. 19, 2013 Rise Set
Actual Time 6:20 AM PDT 7:45 PM PDT
Civil Twilight 5:52 AM PDT 8:13 PM PDT
Nautical Twilight 5:19 AM PDT 8:47 PM PDT
Astronomical Twilight 4:44 AM PDT 9:23 PM PDT
Moon 1:37 PM PDT (4/19) 2:36 AM PDT (4/19)
Length of Visible Light 14h 20m
Length of Day
13h 24m
Waxing Gibbous, 62% of the Moon is Illuminated
Apr 19
Waxing Gibbous
Apr 25
Full
May 2
Last Quarter
May 9
New
May 17
First Quarter

Hourly Weather History & Observations

Time (PDT) Temp. Dew Point Humidity Pressure Visibility Wind Dir Wind Speed Gust Speed Precip Events Conditions
12:00 AM 51.8 °F 32.0 °F 47% 30.27 in 10.0 mi Calm Calm - N/A   Clear
12:20 AM 53.6 °F 32.0 °F 44% 30.26 in 10.0 mi Calm Calm - N/A   Clear
12:35 AM 55.4 °F 32.0 °F 41% 30.26 in 10.0 mi Calm Calm - N/A   Clear
1:00 AM 53.6 °F 32.0 °F 44% 30.26 in 10.0 mi Calm Calm - N/A   Clear
1:20 AM 53.6 °F 32.0 °F 44% 30.26 in 10.0 mi Calm Calm - N/A   Clear
1:40 AM 53.6 °F 32.0 °F 44% 30.25 in 10.0 mi Calm Calm - N/A   Clear
2:00 AM 51.8 °F 32.0 °F 47% 30.25 in 10.0 mi Calm Calm - N/A   Clear
2:20 AM 53.6 °F 32.0 °F 44% 30.24 in 10.0 mi NE 3.5 mph - N/A   Clear
2:40 AM 51.8 °F 32.0 °F 47% 30.24 in 10.0 mi NE 3.5 mph - N/A   Clear
3:00 AM 55.4 °F 26.6 °F 33% 30.23 in 10.0 mi ENE 4.6 mph - N/A   Clear
3:20 AM 53.6 °F 26.6 °F 35% 30.23 in 10.0 mi Calm Calm - N/A   Clear
3:40 AM 55.4 °F 28.4 °F 36% 30.23 in 10.0 mi Calm Calm - N/A   Clear
4:00 AM 53.6 °F 26.6 °F 35% 30.23 in 10.0 mi Calm Calm - N/A   Clear
4:20 AM 53.6 °F 26.6 °F 35% 30.24 in 10.0 mi Calm Calm - N/A   Clear
4:40 AM 53.6 °F 26.6 °F 35% 30.23 in 10.0 mi Calm Calm - N/A   Clear
5:00 AM 53.6 °F 26.6 °F 35% 30.23 in 10.0 mi Calm Calm - N/A   Clear
5:20 AM 53.6 °F 28.4 °F 38% 30.23 in 10.0 mi Calm Calm - N/A   Clear
5:40 AM 53.6 °F 30.2 °F 41% 30.24 in 10.0 mi Calm Calm - N/A   Clear
5:55 AM 50.0 °F 30.2 °F 47% 30.23 in 10.0 mi Calm Calm - N/A   Clear
6:20 AM 53.6 °F 28.4 °F 38% 30.23 in 10.0 mi Calm Calm - N/A   Clear
6:40 AM 53.6 °F 28.4 °F 38% 30.24 in 10.0 mi Calm Calm - N/A   Clear
7:00 AM 53.6 °F 28.4 °F 38% 30.25 in 10.0 mi Calm Calm - N/A   Clear
7:15 AM 53.6 °F 28.4 °F 38% 30.25 in 10.0 mi Calm Calm - N/A   Clear
7:40 AM 53.6 °F 30.2 °F 41% 30.25 in 10.0 mi SSE 4.6 mph - N/A   Clear
8:00 AM 55.4 °F 32.0 °F 41% 30.26 in 10.0 mi Calm Calm - N/A   Clear
8:20 AM 57.2 °F 32.0 °F 38% 30.27 in 10.0 mi SSW 3.5 mph - N/A   Clear
8:40 AM 57.2 °F 32.0 °F 38% 30.27 in 10.0 mi Calm Calm - N/A   Partly Cloudy
9:00 AM 57.2 °F 32.0 °F 38% 30.27 in 10.0 mi Calm Calm - N/A   Partly Cloudy
9:20 AM 57.2 °F 32.0 °F 38% 30.27 in 10.0 mi SSE 3.5 mph - N/A   Clear
9:40 AM 59.0 °F 32.0 °F 36% 30.28 in 10.0 mi SE 3.5 mph - N/A   Clear
10:00 AM 59.0 °F 32.0 °F 36% 30.28 in 10.0 mi Calm Calm - N/A   Clear
10:20 AM 62.6 °F 32.0 °F 32% 30.28 in 10.0 mi Calm Calm - N/A   Partly Cloudy
10:40 AM 62.6 °F 32.0 °F 32% 30.28 in 10.0 mi West 3.5 mph - N/A   Clear
11:00 AM 62.6 °F 32.0 °F 32% 30.28 in 10.0 mi West 3.5 mph - N/A   Clear
11:20 AM 62.6 °F 35.6 °F 37% 30.28 in 10.0 mi SW 4.6 mph - N/A   Clear
11:40 AM 62.6 °F 32.0 °F 32% 30.28 in 10.0 mi WSW 6.9 mph - N/A   Clear
12:00 PM 64.4 °F 32.0 °F 30% 30.27 in 10.0 mi Calm Calm - N/A   Clear
12:20 PM 64.4 °F 35.6 °F 34% 30.27 in 10.0 mi Calm Calm - N/A   Clear
12:40 PM 64.4 °F 33.8 °F 32% 30.26 in 10.0 mi West 4.6 mph - N/A   Clear
1:00 PM 66.2 °F 35.6 °F 32% 30.25 in 10.0 mi West 6.9 mph - N/A   Clear
1:20 PM 66.2 °F 33.8 °F 30% 30.24 in 10.0 mi West 9.2 mph - N/A   Clear
1:40 PM 66.2 °F 35.6 °F 32% 30.23 in 10.0 mi WSW 4.6 mph - N/A   Clear
2:00 PM 66.2 °F 37.4 °F 35% 30.22 in 10.0 mi West 9.2 mph - N/A   Clear
2:20 PM 66.2 °F 37.4 °F 35% 30.22 in 10.0 mi Calm Calm - N/A   Clear
2:40 PM 68.0 °F 37.4 °F 33% 30.21 in 10.0 mi WSW 8.1 mph - N/A   Clear
3:00 PM 66.2 °F 35.6 °F 32% 30.20 in 10.0 mi West 6.9 mph - N/A   Clear
3:20 PM 66.2 °F 35.6 °F 32% 30.20 in 10.0 mi West 9.2 mph - N/A   Clear
3:40 PM 66.2 °F 35.6 °F 32% 30.19 in 10.0 mi West 9.2 mph 16.1 mph N/A   Clear
4:00 PM 66.2 °F 37.4 °F 35% 30.19 in 10.0 mi West 12.7 mph - N/A   Clear
4:20 PM 66.2 °F 37.4 °F 35% 30.18 in 10.0 mi West 9.2 mph - N/A   Clear
4:40 PM 66.2 °F 35.6 °F 32% 30.18 in 10.0 mi WSW 6.9 mph - N/A   Clear
5:00 PM 66.2 °F 35.6 °F 32% 30.17 in 10.0 mi WNW 6.9 mph - N/A   Clear
5:20 PM 66.2 °F 35.6 °F 32% 30.17 in 10.0 mi West 6.9 mph - N/A   Clear
5:40 PM 66.2 °F 35.6 °F 32% 30.17 in 10.0 mi West 8.1 mph - N/A   Clear
6:00 PM 66.2 °F 35.6 °F 32% 30.17 in 10.0 mi WNW 6.9 mph - N/A   Clear
6:20 PM 66.2 °F 35.6 °F 32% 30.16 in 10.0 mi West 4.6 mph - N/A   Clear
6:40 PM 66.2 °F 35.6 °F 32% 30.16 in 10.0 mi Calm Calm - N/A   Clear
7:00 PM 64.4 °F 35.6 °F 34% 30.15 in 10.0 mi West 5.8 mph - N/A   Clear
7:20 PM 64.4 °F 35.6 °F 34% 30.15 in 10.0 mi West 5.8 mph - N/A   Clear
7:40 PM 62.6 °F 35.6 °F 37% 30.15 in 10.0 mi West 4.6 mph - N/A   Clear
8:00 PM 62.6 °F 37.4 °F 39% 30.15 in 10.0 mi Calm Calm - N/A   Clear
8:20 PM 60.8 °F 37.4 °F 42% 30.15 in 10.0 mi Calm Calm - N/A   Clear
8:40 PM 59.0 °F 39.2 °F 48% 30.16 in 10.0 mi Calm Calm - N/A   Clear
9:00 PM 59.0 °F 39.2 °F 48% 30.16 in 10.0 mi Calm Calm - N/A   Clear
9:20 PM 57.2 °F 39.2 °F 51% 30.16 in 10.0 mi Calm Calm - N/A   Clear
9:40 PM 57.2 °F 39.2 °F 51% 30.16 in 10.0 mi Calm Calm - N/A   Clear
10:00 PM 57.2 °F 37.4 °F 48% 30.16 in 10.0 mi Calm Calm - N/A   Clear
10:20 PM 57.2 °F 39.2 °F 51% 30.16 in 10.0 mi Calm Calm - N/A   Clear
10:40 PM 57.2 °F 37.4 °F 48% 30.16 in 10.0 mi Calm Calm - N/A   Clear
11:00 PM 57.2 °F 37.4 °F 48% 30.16 in 10.0 mi Calm Calm - N/A   Clear
11:20 PM 55.4 °F 39.2 °F 54% 30.15 in 10.0 mi Calm Calm - N/A   Clear
11:40 PM 57.2 °F 37.4 °F 48% 30.15 in 10.0 mi Calm Calm - N/A   Clear